Location: Ar Ranvel
(48.3000°N, 4.8833°W)
Time: 09:41:34
(UTC+00:00)

SL-14 R/B - Pass Details

Date: 16 June 2021
Orbit: 517 x 554 km, 82.4° (Epoch: 26 July)

Event Time Altitude Azimuth Distance (km) Brightness Sun altitude
Exits shadow 22:52:10 15° 211° (SSW) 1,522 5.2 -15.6°
Maximum altitude 22:55:17 49° 283° (WNW) 720 4.1 -15.8°
Drops below altitude 10° 22:59:14 10° 360° (N) 1,840 7.1 -16.0°
Sets 23:01:28 0° 6° (N) 2,735 8.1 -16.2°
